Date,TemperatureHighF,TemperatureAvgF,TemperatureLowF,DewpointHighF,DewpointAvgF,DewpointLowF,HumidityHigh,HumidityAvg,HumidityLow,PressureMaxIn,PressureMinIn,WindSpeedMaxMPH,WindSpeedAvgMPH,GustSpeedMaxMPH,PrecipitationSumIn
2013-1-1,78.8,72.1,64.9,63.2,59.9,57.2,84,66,54,30.07,29.91,16,4,0,0.00
2013-1-2,82.0,70.4,59.2,67.7,63.1,58.9,99,81,49,29.95,29.84,7,2,0,0.00
2013-1-3,81.1,72.8,66.0,68.5,67.0,65.1,99,83,62,30.00,29.88,8,3,0,0.00
2013-1-4,82.0,71.5,64.6,70.7,67.8,64.3,99,89,64,30.09,29.96,9,3,0,0.00
2013-1-5,74.7,68.7,64.2,70.9,67.5,63.9,99,96,83,30.11,30.01,8,3,0,0.10
2013-1-6,81.9,72.3,64.0,72.9,68.5,63.7,99,89,68,30.04,29.90,12,3,0,0.00
2013-1-7,75.7,70.1,66.7,71.2,68.9,66.4,99,96,83,30.01,29.91,8,3,0,0.18
2013-1-8,81.7,74.8,69.4,74.3,71.3,69.1,99,89,74,30.06,29.93,13,5,0,0.23
2013-1-9,81.5,77.0,73.0,72.5,71.1,69.3,96,82,72,30.14,30.02,19,7,0,0.00
2013-1-10,80.4,76.0,73.0,70.0,67.0,63.5,86,74,58,30.16,30.04,17,8,0,0.00
2013-1-11,81.3,75.4,72.3,70.1,68.3,66.7,89,79,68,30.12,30.01,12,6,0,0.00
2013-1-12,81.0,74.6,67.8,69.1,66.8,65.1,94,77,60,30.04,29.95,11,5,0,0.00
2013-1-13,81.3,74.9,70.2,68.3,65.5,62.2,87,73,58,29.99,29.93,14,6,0,0.00
2013-1-14,80.2,73.0,63.9,67.6,64.6,61.6,98,76,59,30.03,29.97,14,4,0,0.00
2013-1-15,79.3,72.4,65.3,67.5,65.9,64.0,99,81,67,29.99,29.90,12,4,0,0.00
2013-1-16,80.8,72.2,62.1,70.2,67.0,61.8,99,85,63,29.96,29.87,12,3,0,0.01
2013-1-17,81.0,71.0,60.6,71.9,66.0,52.5,99,85,68,29.95,29.83,20,5,0,0.04
2013-1-18,71.6,63.0,51.3,59.2,52.7,45.3,84,70,60,30.09,29.95,14,7,0,0.00
2013-1-19,71.8,68.6,64.9,68.7,64.5,59.2,99,87,69,30.08,29.96,8,3,0,0.32
2013-1-20,81.5,70.5,63.7,68.8,66.5,63.4,99,88,61,30.00,29.86,8,3,0,0.22
2013-1-21,78.4,70.3,64.6,72.0,67.5,64.3,99,92,72,29.92,29.81,7,3,0,0.20
2013-1-22,75.7,67.9,61.9,64.1,58.6,52.3,99,74,57,30.07,29.85,16,6,0,0.00
2013-1-23,74.1,66.6,59.5,58.2,54.7,51.8,85,67,46,30.16,30.05,13,6,0,0.00
2013-1-24,76.3,65.1,57.9,55.2,51.4,39.8,88,64,35,30.15,30.04,14,4,0,0.00
2013-1-25,76.6,65.7,57.2,60.0,55.1,50.6,90,70,50,30.15,30.03,9,3,0,0.00
2013-1-26,78.4,66.9,58.3,61.0,57.2,50.4,99,74,44,30.12,30.01,10,3,0,0.00
2013-1-27,78.1,69.8,60.4,63.2,59.8,57.6,99,73,52,30.15,30.06,14,5,0,0.00
2013-1-28,79.3,74.3,70.7,67.7,63.9,60.4,85,71,59,30.17,30.07,14,7,0,0.00
2013-1-29,79.3,73.8,69.6,70.9,67.7,65.6,99,82,71,30.09,29.97,12,5,0,0.01
2013-1-30,79.9,74.1,70.0,69.0,65.8,63.7,93,76,63,29.97,29.81,19,6,0,0.00
2013-1-31,71.6,65.7,57.0,71.3,58.2,39.5,99,78,48,30.04,29.80,13,5,0,0.01
2013-2-1,71.8,61.3,52.3,54.8,47.6,36.6,75,61,51,30.14,30.02,15,6,0,0.00
2013-2-2,73.6,62.7,54.3,55.4,47.9,35.9,96,60,44,30.13,29.97,16,4,0,0.00
2013-2-3,73.6,62.4,52.7,55.8,47.8,36.3,99,64,26,30.02,29.92,9,3,0,0.00
2013-2-4,77.2,61.9,49.5,56.4,47.6,39.3,98,63,28,30.01,29.88,9,3,0,0.00
2013-2-5,78.3,66.1,52.9,63.5,58.2,52.6,99,79,48,29.94,29.85,10,2,0,0.00
2013-2-6,79.2,69.5,59.2,66.2,62.4,58.9,99,80,62,29.96,29.88,9,3,0,0.00
2013-2-7,81.9,73.5,65.8,66.5,64.3,61.7,89,74,54,29.93,29.79,9,4,0,0.00
2013-2-8,83.1,73.2,66.6,70.4,66.4,60.1,98,81,49,29.89,29.76,11,4,0,0.00
2013-2-9,79.3,70.9,63.9,67.0,63.5,60.0,99,79,57,30.03,29.87,17,6,0,0.00
2013-2-10,74.8,71.4,68.2,63.6,61.5,58.5,82,71,64,30.12,30.00,16,8,0,0.00
2013-2-11,79.2,72.5,67.1,65.5,63.3,60.7,86,73,62,30.08,29.96,14,5,0,0.00
2013-2-12,84.4,73.5,62.2,69.4,66.4,61.9,99,80,48,29.97,29.81,14,4,0,0.00
2013-2-13,88.2,76.4,67.3,72.4,69.5,67.0,99,81,50,29.86,29.73,13,6,0,0.00
2013-2-14,79.3,69.5,62.2,72.4,67.8,61.9,99,95,77,29.86,29.71,24,5,0,2.25
2013-2-15,72.1,66.0,62.2,67.7,65.0,61.9,99,97,81,29.87,29.79,9,3,0,0.32
2013-2-16,72.1,64.5,54.1,63.6,56.3,43.4,99,77,42,29.94,29.73,20,7,0,0.00
2013-2-17,58.3,51.1,43.7,43.7,27.8,16.5,71,43,22,30.18,29.94,14,7,0,0.00
2013-2-18,69.3,59.1,46.2,56.2,44.0,31.1,69,58,46,30.20,30.06,18,7,0,0.00
2013-2-19,79.3,70.7,57.0,66.9,60.5,52.3,94,71,57,30.06,29.93,15,5,0,0.00
2013-2-20,78.4,70.3,62.4,67.2,64.5,58.9,99,84,54,29.97,29.86,11,3,0,0.00
2013-2-21,81.5,72.5,63.3,71.0,66.2,63.0,99,82,60,29.95,29.85,10,4,0,0.00
2013-2-22,82.2,75.5,70.0,71.7,69.9,66.4,93,83,68,29.96,29.87,16,6,0,0.00
2013-2-23,84.6,76.3,70.5,73.0,70.7,68.6,99,84,66,29.90,29.76,15,6,0,0.44
2013-2-24,88.9,77.0,70.2,73.8,70.9,66.9,99,83,50,29.85,29.75,9,4,0,0.00
2013-2-25,84.4,75.7,67.8,73.8,70.9,67.5,99,86,64,29.78,29.66,11,4,0,0.00
2013-2-26,86.9,79.7,73.4,73.2,70.7,67.4,97,75,55,29.74,29.64,20,7,0,0.01
2013-2-27,76.5,69.8,62.1,74.6,65.5,60.7,99,87,61,29.82,29.71,9,4,0,0.77
2013-2-28,70.9,64.0,58.8,63.9,53.7,47.3,99,71,44,29.86,29.76,11,5,0,0.00
2013-3-1,65.3,61.4,57.6,58.0,50.8,46.6,86,68,56,29.85,29.76,10,5,0,0.00
2013-3-2,66.0,57.6,50.2,49.3,41.2,33.9,79,56,37,29.89,29.81,21,7,0,0.00
2013-3-3,62.1,53.8,48.7,46.7,41.2,37.1,89,64,44,30.02,29.83,16,6,0,0.00
2013-3-4,67.8,53.6,40.6,46.2,35.8,26.6,88,55,22,30.08,29.99,14,5,0,0.00
2013-3-5,75.6,62.8,47.1,56.6,52.7,46.2,99,72,48,30.05,29.94,12,4,0,0.00
2013-3-6,77.7,64.5,52.9,63.2,51.4,32.1,99,68,27,29.95,29.79,23,8,0,0.01
2013-3-7,72.5,58.7,47.1,55.6,44.4,34.6,96,61,36,30.05,29.94,11,5,0,0.00
2013-3-8,75.9,62.5,52.3,54.4,50.1,41.6,99,68,30,30.07,29.96,11,4,0,0.00
2013-3-9,74.7,64.7,54.0,56.1,53.2,49.7,93,68,50,30.05,29.97,16,5,0,0.00
2013-3-10,75.7,69.8,64.9,60.4,55.5,51.8,73,61,47,30.01,29.92,16,7,0,0.00
2013-3-11,78.4,71.6,68.0,62.6,60.0,57.0,79,67,50,29.96,29.81,14,7,0,0.00
2013-3-12,80.8,74.1,69.3,70.3,65.9,61.9,88,76,65,29.85,29.75,12,6,0,0.00
2013-3-13,75.4,65.6,56.3,66.4,54.5,43.4,97,71,37,29.98,29.83,13,6,0,0.00
2013-3-14,71.4,60.8,54.0,53.4,46.0,38.0,90,62,31,30.06,29.94,14,6,0,0.00
2013-3-15,72.0,61.8,52.0,54.3,49.6,44.6,90,66,43,30.12,30.00,11,4,0,0.00
2013-3-16,76.5,64.4,52.7,59.5,53.8,50.2,99,72,42,30.06,29.94,9,3,0,0.00
2013-3-17,76.8,67.4,56.7,61.4,58.7,56.1,99,75,54,30.01,29.88,11,3,0,0.00
2013-3-18,80.8,70.9,62.8,71.2,65.8,60.9,99,85,63,29.93,29.81,16,4,0,0.63
2013-3-19,82.4,72.8,67.1,70.8,68.0,64.9,99,87,58,29.85,29.69,16,4,0,0.02
2013-3-20,85.5,73.0,63.3,72.2,64.8,56.4,99,78,45,29.82,29.65,13,4,0,0.00
2013-3-21,76.8,66.4,55.9,62.7,53.7,42.8,99,68,31,29.80,29.67,14,5,0,0.00
2013-3-22,75.7,67.0,53.2,70.5,59.9,52.9,99,80,57,29.86,29.75,13,4,0,0.00
2013-3-23,88.2,77.7,70.5,74.8,72.0,68.8,99,84,55,29.84,29.65,14,4,0,0.00
2013-3-24,89.8,80.0,72.0,74.6,71.9,67.1,99,79,53,29.74,29.53,21,9,0,0.04
2013-3-25,79.7,72.9,63.7,74.0,59.2,38.8,99,67,33,29.85,29.59,14,6,0,0.08
2013-3-26,67.3,60.3,51.6,42.2,36.8,30.5,56,43,27,30.08,29.84,19,8,0,0.00
2013-3-27,70.3,56.3,45.9,47.4,39.6,32.9,78,55,29,30.12,30.03,12,6,0,0.00
2013-3-28,72.7,60.8,49.8,50.3,44.3,32.5,80,57,28,30.14,30.02,13,5,0,0.00
2013-3-29,75.0,64.6,54.0,53.7,49.3,44.9,81,59,41,30.15,30.05,12,4,0,0.00
2013-3-30,75.7,66.1,54.9,58.6,52.5,48.0,99,65,40,30.12,30.02,12,4,0,0.00
2013-3-31,81.1,71.0,57.6,66.5,61.5,54.9,99,73,53,30.05,29.90,11,5,0,0.00
2013-4-1,88.5,76.7,67.3,71.5,66.7,60.6,98,74,40,29.91,29.78,16,6,0,0.00
2013-4-2,85.1,73.0,65.1,68.2,65.8,62.8,99,80,48,29.93,29.84,10,4,0,0.00
2013-4-3,83.7,75.9,68.9,70.2,68.4,66.8,95,79,60,29.92,29.84,14,5,0,0.00
2013-4-4,85.3,75.6,68.2,73.5,70.5,67.9,99,85,66,29.90,29.76,26,6,0,0.68
2013-4-5,72.5,67.9,64.4,70.4,67.0,64.1,99,97,87,29.85,29.67,11,5,0,0.39
2013-4-6,76.5,68.5,58.3,66.5,61.7,58.0,99,80,58,29.94,29.77,14,7,0,0.01
2013-4-7,77.2,73.0,68.9,64.6,62.6,60.5,78,70,60,29.99,29.88,12,7,0,0.00
2013-4-8,83.1,73.4,60.6,65.0,61.8,58.0,99,69,47,29.99,29.89,11,4,0,0.00
2013-4-9,81.3,74.7,71.2,69.9,67.0,63.8,94,78,58,30.00,29.89,14,6,0,0.09
2013-4-10,83.5,76.6,71.2,72.6,70.4,66.8,89,81,68,29.96,29.85,14,7,0,0.00
2013-4-11,84.6,77.7,74.8,74.3,72.2,71.1,92,84,69,29.87,29.74,16,8,0,0.00
2013-4-12,88.3,79.9,76.6,77.0,75.0,73.8,93,85,69,29.80,29.71,16,7,0,0.29
2013-4-13,87.1,76.1,71.2,75.9,72.7,68.6,99,90,69,29.82,29.73,12,3,0,0.15
2013-4-14,85.6,78.9,70.9,76.5,74.0,70.6,99,86,68,29.82,29.75,13,5,0,0.01
2013-4-15,89.8,75.8,69.6,76.3,72.9,68.7,99,92,63,29.91,29.77,17,3,0,0.91
2013-4-16,85.6,77.7,70.0,78.1,72.9,69.7,99,86,69,29.98,29.87,15,6,0,0.01
2013-4-17,83.8,77.8,72.1,71.3,68.8,66.4,91,75,58,29.96,29.86,14,6,0,0.00
2013-4-18,85.6,79.4,72.9,73.9,71.4,67.7,90,77,63,29.91,29.82,13,6,0,0.00
2013-4-19,87.8,81.2,76.5,74.2,72.7,69.7,88,76,59,29.90,29.81,17,7,0,0.00
2013-4-20,90.3,78.2,71.4,76.8,73.2,70.5,99,86,54,29.93,29.81,12,4,0,0.27
2013-4-21,85.1,77.6,71.2,74.4,72.1,70.6,99,84,67,29.94,29.83,14,5,0,0.00
2013-4-22,85.6,75.5,71.2,72.3,69.9,67.2,98,84,59,29.89,29.77,12,4,0,0.00
2013-4-23,83.5,75.4,67.3,69.0,65.9,60.3,99,74,55,29.94,29.79,18,8,0,0.00
2013-4-24,83.8,76.9,68.5,66.0,63.5,60.1,87,64,51,29.99,29.88,11,5,0,0.00
2013-4-25,82.2,75.9,68.9,64.2,62.0,59.3,81,63,46,30.05,29.92,14,5,0,0.00
2013-4-26,82.6,75.4,64.4,66.9,64.2,61.2,97,69,54,30.07,29.96,15,6,0,0.00
2013-4-27,81.1,76.7,71.1,67.2,63.9,61.5,75,65,53,30.06,29.94,15,7,0,0.00
2013-4-28,82.2,77.0,72.3,65.7,63.3,61.2,73,63,50,29.97,29.85,12,7,0,0.00
2013-4-29,84.0,77.4,72.1,71.4,67.8,62.8,85,73,58,29.89,29.78,14,6,0,0.00
2013-4-30,86.0,76.5,70.5,73.3,70.4,67.5,99,82,61,29.85,29.77,13,3,0,0.11
2013-5-1,84.7,74.4,69.4,74.7,70.9,69.1,99,90,64,29.85,29.76,10,3,0,0.34
2013-5-2,80.1,71.4,66.9,73.5,70.1,66.6,99,96,79,29.80,29.64,17,5,0,3.03
2013-5-3,88.2,74.6,67.8,71.6,69.5,66.8,99,86,50,29.66,29.52,11,4,0,0.42
2013-5-4,89.6,76.4,67.3,71.2,68.2,66.1,99,78,48,29.65,29.53,12,5,0,0.01
2013-5-5,82.9,73.5,66.2,68.1,61.7,51.8,99,70,36,29.78,29.61,14,6,0,0.00
2013-5-6,85.5,72.5,58.5,63.3,60.0,52.3,99,67,44,29.87,29.76,9,3,0,0.00
2013-5-7,85.6,73.5,61.5,66.0,59.9,56.8,89,65,40,29.92,29.82,13,5,0,0.00
2013-5-8,90.7,74.8,61.2,66.1,60.4,54.7,98,65,34,29.99,29.89,9,4,0,0.00
2013-5-9,88.3,78.0,66.0,73.4,67.5,60.1,88,71,46,29.98,29.91,11,4,0,0.00
2013-5-10,90.0,80.8,72.5,74.4,72.4,68.6,97,77,52,29.99,29.87,14,4,0,0.00
2013-5-11,88.5,79.2,72.7,76.3,73.9,71.1,99,85,63,29.93,29.82,12,4,0,0.22
2013-5-12,92.3,78.1,71.1,75.8,72.1,70.2,99,84,49,29.91,29.79,11,3,0,0.38
2013-5-13,88.0,78.2,71.1,73.3,69.1,62.6,99,76,45,29.94,29.84,11,4,0,0.01
2013-5-14,81.3,75.9,69.8,66.3,60.4,55.0,79,60,44,30.03,29.92,14,7,0,0.00
2013-5-15,81.7,75.3,66.2,65.0,61.0,56.7,84,62,48,30.05,29.94,16,6,0,0.00
2013-5-16,84.9,76.2,65.1,64.9,62.1,57.9,91,63,47,29.97,29.89,12,5,0,0.00
2013-5-17,88.0,77.1,68.9,73.3,69.7,63.1,97,79,57,29.95,29.85,13,4,0,0.00
2013-5-18,86.7,78.6,72.1,75.9,72.4,70.0,99,82,65,29.95,29.88,12,4,0,0.11
2013-5-19,87.3,79.6,71.4,71.6,69.8,67.1,96,73,55,29.95,29.85,11,5,0,0.00
2013-5-20,78.8,74.5,69.4,74.5,71.9,67.6,99,92,81,29.94,29.82,14,4,0,4.14
2013-5-21,83.1,75.7,68.9,74.9,71.2,68.1,99,87,67,29.92,29.78,12,4,0,0.01
2013-5-22,87.3,77.2,71.8,75.0,72.0,69.1,96,85,60,29.82,29.74,15,3,0,0.18
2013-5-23,93.9,81.8,73.2,74.9,72.0,65.9,99,76,40,29.85,29.76,11,5,0,0.00
2013-5-24,92.8,85.0,75.9,74.7,71.6,65.6,96,66,48,29.92,29.85,12,6,0,0.00
2013-5-25,85.1,80.1,73.6,75.7,68.1,63.9,98,69,51,30.01,29.89,18,8,0,0.05
2013-5-26,84.4,78.0,68.5,67.8,64.4,58.7,87,64,54,30.03,29.95,14,6,0,0.00
2013-5-27,83.7,78.2,71.8,72.8,69.2,63.2,95,74,64,30.02,29.91,17,8,0,0.27
2013-5-28,83.1,78.1,72.9,73.6,72.4,70.7,97,83,69,29.96,29.89,18,9,0,0.35
2013-5-29,82.2,75.3,70.3,74.4,71.5,67.4,99,88,64,29.94,29.87,21,7,0,2.91
2013-5-30,83.8,77.8,71.2,74.4,71.5,68.8,93,81,71,29.93,29.85,19,10,0,0.15
2013-5-31,84.9,78.7,74.3,75.1,73.3,70.3,96,84,72,29.91,29.85,16,8,0,0.20
2013-6-1,84.7,76.6,73.2,76.6,74.4,72.9,99,93,74,29.88,29.82,11,3,0,1.56
2013-6-2,90.3,79.8,71.8,77.2,73.4,71.4,99,82,58,29.85,29.76,11,2,0,0.02
2013-6-3,88.0,78.4,72.1,77.3,73.8,71.8,99,87,64,29.89,29.75,11,2,0,0.73
2013-6-4,85.1,78.4,72.9,76.7,74.3,72.2,99,88,67,29.90,29.80,9,2,0,0.03
2013-6-5,84.4,80.7,78.3,77.7,75.9,74.2,93,86,77,29.87,29.74,10,5,0,0.11
2013-6-6,87.8,79.8,73.6,79.9,75.3,71.2,98,87,71,29.76,29.62,18,8,0,1.42
2013-6-7,90.9,77.9,73.4,76.7,73.8,72.3,99,88,61,29.84,29.70,13,5,0,0.45
2013-6-8,87.1,78.7,73.8,78.6,75.3,73.5,99,90,71,29.96,29.82,10,3,0,1.03
2013-6-9,88.5,82.4,77.2,76.0,74.6,73.3,94,78,64,29.97,29.89,14,6,0,0.00
2013-6-10,89.2,83.3,79.2,77.2,75.4,73.7,88,78,64,29.94,29.86,12,6,0,0.00
2013-6-11,89.6,82.4,78.4,78.1,76.0,73.4,93,82,63,29.95,29.86,9,4,0,0.12
2013-6-12,90.3,80.4,75.9,78.5,75.9,71.6,97,87,64,29.95,29.86,7,1,0,0.10
2013-6-13,91.4,80.9,73.9,78.0,73.9,70.7,99,81,53,29.90,29.79,9,2,0,0.00
2013-6-14,95.7,82.3,74.3,76.0,72.3,67.5,97,74,46,29.82,29.73,11,4,0,0.00
2013-6-15,91.9,82.8,74.7,76.1,73.9,70.5,97,76,52,29.92,29.78,10,3,0,0.00
2013-6-16,91.4,83.5,75.6,77.2,74.7,73.1,98,76,57,29.94,29.86,11,4,0,0.00
2013-6-17,93.2,85.1,76.5,76.9,75.0,73.6,95,73,56,29.93,29.85,10,4,0,0.00
2013-6-18,92.5,84.7,76.1,76.9,74.7,72.8,96,74,56,29.91,29.84,10,4,0,0.00
2013-6-19,93.4,84.5,77.5,77.7,75.0,72.9,94,74,55,29.90,29.82,12,4,0,0.00
2013-6-20,93.0,82.5,72.9,75.5,72.6,67.2,90,73,51,29.94,29.87,11,4,0,0.00
2013-6-21,91.8,83.3,75.6,75.6,73.2,71.1,93,73,53,29.97,29.88,14,4,0,0.00
2013-6-22,90.5,83.7,76.1,75.0,72.9,70.5,92,71,56,29.95,29.89,12,5,0,0.00
2013-6-23,90.3,83.3,77.4,76.3,73.8,71.0,87,74,60,29.99,29.90,14,6,0,0.00
2013-6-24,88.9,82.9,79.0,74.9,70.8,-99.9,81,69,58,30.02,29.92,13,-6,0,0.00
2013-6-25,91.0,83.6,79.0,77.0,74.4,71.8,86,74,61,29.99,29.88,14,6,0,0.00
2013-6-26,91.9,83.3,77.4,76.2,74.5,72.8,93,76,57,29.93,29.86,11,5,0,0.09
2013-6-27,92.3,81.8,76.6,76.9,74.3,70.6,93,79,61,29.91,29.79,9,2,0,0.03
2013-6-28,93.9,82.5,73.0,76.5,74.0,70.2,97,78,53,29.85,29.69,14,3,0,0.30
2013-6-29,95.5,81.0,73.6,76.6,74.4,71.4,98,83,47,29.78,29.65,19,3,0,0.59
2013-6-30,90.3,79.2,73.2,76.6,74.3,70.3,99,86,59,29.80,29.69,13,4,0,2.33
2013-7-1,90.3,80.6,75.2,77.8,75.4,70.4,99,85,66,29.90,29.76,18,5,0,0.07
2013-7-2,89.1,82.6,75.7,78.4,76.2,72.9,94,82,69,29.96,29.81,14,5,0,0.03
2013-7-3,88.5,81.5,77.7,78.3,75.4,73.5,91,82,72,29.97,29.90,18,6,0,0.34
2013-7-4,89.4,83.6,77.4,77.4,75.4,71.9,89,77,65,30.02,29.91,17,7,0,0.00
2013-7-5,85.6,79.9,74.1,77.1,74.7,70.0,95,85,74,30.00,29.91,16,6,0,0.68
2013-7-6,88.7,82.4,79.5,76.5,74.3,72.7,83,77,66,29.97,29.89,14,6,0,0.04
2013-7-7,88.3,83.3,78.3,76.6,74.6,72.9,84,75,65,29.96,29.87,17,7,0,0.00
2013-7-8,89.6,82.9,77.4,75.7,73.4,70.0,85,74,53,30.00,29.92,14,5,0,0.00
2013-7-9,88.9,80.9,74.8,75.0,72.5,70.7,90,76,62,29.99,29.90,11,4,0,0.01
2013-7-10,87.1,78.6,70.7,75.7,72.9,68.6,96,83,68,29.95,29.85,10,4,0,0.54
2013-7-11,92.5,82.5,75.2,77.2,74.3,71.8,96,77,52,29.90,29.79,11,3,0,0.00
2013-7-12,92.7,79.6,71.6,77.3,73.7,69.1,97,84,54,29.83,29.75,19,2,0,2.12
2013-7-13,87.4,75.1,72.5,77.6,72.5,70.3,97,92,69,29.86,29.77,10,2,0,1.26
2013-7-14,90.3,78.2,72.1,76.3,73.1,71.0,97,85,60,29.93,29.82,14,4,0,0.18
2013-7-15,89.2,79.9,71.8,78.0,73.3,70.7,97,81,60,29.94,29.85,10,4,0,0.42
2013-7-16,83.8,77.4,72.1,74.5,71.6,68.8,95,83,63,29.99,29.89,16,6,0,0.50
2013-7-17,82.2,78.3,73.8,74.6,72.8,70.1,93,84,76,29.99,29.88,10,4,0,0.09
2013-7-18,88.3,77.4,72.0,77.2,73.4,69.9,97,88,70,29.96,29.90,14,4,0,0.83
2013-7-19,88.7,80.7,73.6,79.1,75.9,72.7,98,86,70,29.97,29.88,14,4,0,0.00
2013-7-20,88.3,81.7,74.5,80.1,76.8,71.4,95,85,73,29.95,29.87,11,4,0,0.40
2013-7-21,89.6,80.8,75.0,79.5,76.1,71.8,97,86,70,29.99,29.87,9,2,0,0.04
2013-7-22,92.8,83.3,75.0,77.6,75.5,72.4,95,79,56,29.98,29.90,11,3,0,0.00
2013-7-23,97.0,84.7,76.5,78.8,75.2,71.9,93,75,45,29.95,29.81,11,4,0,0.00
2013-7-24,94.8,85.1,77.0,76.8,73.5,65.9,92,70,46,29.86,29.74,12,5,0,0.00
2013-7-25,94.6,84.7,75.6,77.2,75.0,72.8,94,74,55,29.85,29.75,11,4,0,0.00
2013-7-26,93.7,83.0,77.5,78.1,75.6,74.1,92,79,56,29.86,29.77,12,5,0,0.01
2013-7-27,93.2,80.1,74.8,78.4,75.3,73.0,95,86,59,29.85,29.77,12,3,0,0.75
2013-7-28,88.0,79.4,73.2,79.1,75.2,71.0,94,87,75,29.91,29.79,11,2,0,0.73
2013-7-29,91.4,81.4,75.0,78.4,75.8,73.8,96,84,63,29.97,29.87,14,3,0,0.00
2013-7-30,90.3,84.0,75.0,80.0,77.0,72.7,93,80,67,29.99,29.90,12,4,0,0.12
2013-7-31,91.0,84.3,77.4,78.9,75.9,73.3,92,77,61,29.95,29.84,12,5,0,0.00
2013-8-1,89.6,83.3,77.7,77.2,74.5,73.2,88,76,61,29.89,29.78,14,5,0,0.00
2013-8-2,91.2,80.8,75.7,76.8,74.0,71.6,94,81,57,29.89,29.75,10,3,0,0.03
2013-8-3,88.7,77.8,72.0,79.2,74.1,69.2,95,89,71,29.99,29.86,19,2,0,0.62
2013-8-4,94.8,81.4,74.8,78.9,75.0,71.9,97,83,54,29.95,29.80,16,2,0,0.07
2013-8-5,93.0,81.2,75.9,79.8,75.5,72.3,95,84,61,29.88,29.77,14,3,0,0.29
2013-8-6,92.8,82.6,75.6,78.9,75.9,73.4,96,81,63,29.81,29.72,8,2,0,0.00
2013-8-7,91.0,83.9,76.5,79.3,76.4,73.7,93,79,63,29.83,29.73,11,2,0,0.05
2013-8-8,94.1,84.8,80.6,80.0,76.4,74.2,85,76,58,29.86,29.76,4,1,0,0.02
2013-8-9,88.9,82.7,78.6,79.0,75.4,72.0,89,79,65,29.90,29.79,3,0,0,0.08
2013-8-10,91.2,84.3,79.3,79.3,76.7,74.6,88,78,65,29.95,29.87,3,0,0,0.00
2013-8-11,91.2,85.2,80.1,78.9,77.1,75.5,87,77,66,29.97,29.90,5,1,0,0.00
2013-8-12,90.0,83.6,76.8,77.7,75.6,74.0,91,78,63,29.94,29.85,5,1,0,0.00
2013-8-13,92.3,84.8,78.6,78.7,76.0,74.1,90,76,58,29.89,29.78,3,0,0,0.00
2013-8-14,91.9,84.0,77.2,78.1,75.7,74.3,93,77,59,29.87,29.75,3,0,0,0.00
2013-8-15,88.9,81.5,75.2,78.8,76.3,73.0,95,85,70,29.90,29.79,3,0,0,0.22
2013-8-16,91.6,83.0,78.4,79.9,77.2,74.4,92,83,65,29.90,29.82,3,0,0,0.00
2013-8-20,88.3,78.0,81.1,77.7,63.4,-99.9,89,73,68,29.90,29.82,3,-76,0,0.00
2013-8-21,88.5,83.1,78.6,80.1,77.8,75.3,94,84,73,29.91,29.83,6,1,0,0.06
2013-8-22,90.0,84.5,78.6,80.6,77.6,74.9,90,80,67,29.90,29.78,4,1,0,0.08
2013-8-23,90.5,82.7,76.8,80.7,76.9,74.9,96,83,68,29.85,29.76,3,0,0,0.00
2013-8-24,92.3,84.2,77.5,78.8,76.5,73.7,93,78,60,29.95,29.81,6,1,0,0.00
2013-8-25,87.6,82.1,77.5,76.9,75.4,73.7,90,81,69,29.98,29.86,4,1,0,0.00
2013-8-26,90.3,81.4,72.3,78.1,74.9,69.7,95,82,62,29.95,29.84,7,0,0,0.62
2013-8-27,84.0,78.2,73.8,76.8,73.6,71.6,97,86,69,29.89,29.80,2,0,0,0.00
2013-8-28,86.7,79.7,74.7,77.8,74.9,72.5,94,86,66,29.87,29.78,3,0,0,0.12
2013-8-29,88.9,81.9,74.8,78.7,75.2,70.2,91,81,67,29.86,29.76,4,0,0,0.00
2013-8-30,91.0,83.4,76.3,77.2,75.4,72.3,93,78,57,29.83,29.73,3,0,0,0.00
2013-8-31,90.3,81.2,74.7,79.0,75.1,71.4,92,82,65,29.82,29.75,4,0,0,0.02
2013-9-1,90.3,80.4,74.7,78.7,75.7,72.3,96,86,67,29.84,29.77,2,0,0,0.00
2013-9-2,93.4,78.9,74.1,79.8,74.9,72.1,95,88,63,29.88,29.77,4,0,0,0.91
2013-9-3,88.0,80.0,72.9,78.4,75.3,71.7,97,86,67,29.86,29.75,3,0,0,0.01
2013-9-4,89.1,82.5,77.7,80.5,77.6,75.4,94,86,76,29.90,29.77,3,0,0,0.00
2013-9-5,92.1,84.2,79.5,79.7,77.7,76.0,90,81,66,29.90,29.81,4,1,0,0.02
2013-9-6,91.4,83.9,77.9,80.3,77.5,75.7,95,82,63,29.88,29.75,4,1,0,0.03
2013-9-7,88.0,79.5,73.4,78.5,75.4,70.6,94,88,71,29.82,29.74,5,0,0,0.24
2013-9-8,86.7,76.5,73.8,78.3,73.9,72.0,95,92,72,29.79,29.72,1,0,0,0.01